Regional Weather Roundup
Issued by NWS Grand Forks, ND

Home | Current Version | Previous Version | Text Only | Print | Product List | Glossary On
Versions: 1 2 3 4 5 6 7 8 9 10 11 12 13 14 15 16 17 18 19 20 21 22 23 24 25 26 27 28 29 30 31 32 33 34 35 36 37 38 39 40 41 42 43 44 45 46 47 48 49 50
000
ASUS43 KFGF 240231
RWRFGF
PRAIRIE TO PINES  WEATHER ROUNDUP
NATIONAL WEATHER SERVICE EASTERN NORTH DAKOTA/GRAND FORKS ND
800 PM CST THU FEB 23 2017

 **SATELLITE DATA USED TO AUGMENT SKY COVER AT AUTOMATED STATIONS**
 *****  WEATHER ACROSS EASTERN NORTH DAKOTA  *****

CITY           SKY/WX    TMP DP  RH WIND       PRES   REMARKS
GRAND FORKS    FAIR      23  12  62 N17       30.13S WCI   9
GRAND FRKS AFB FAIR      21  15  76 NE10      30.13S WCI  10
DEVILS LAKE    FAIR      18  15  88 N6        30.12R WCI  10
FARGO          CLOUDY    24  15  68 N22       30.09S WCI   9
WAHPETON ARPT  FAIR      27  19  74 N21G29    30.01F WCI  13
$$

 ***** WEATHER ACROSS CENTRAL AND WESTERN NORTH DAKOTA  *****

CITY           SKY/WX    TMP DP  RH WIND       PRES   REMARKS
BISMARCK       FAIR      23  16  74 N12       30.11R WCI  12
MINOT          FAIR      21  16  81 CALM      30.12S
JAMESTOWN      CLOUDY    24  19  81 NE13      30.06F WCI  12
MINOT AFB      FAIR      17  13  84 NW5       30.12S WCI   9
GARRISON         N/A     15  10  80 N3        30.12R
WILLISTON      FAIR      17  11  77 NE6       30.13R WCI   9
DICKINSON      CLOUDY    20  12  71 NE9       30.05F WCI   9
HETTINGER      CLOUDY    24  23  96 N12       30.04R FOG     WCI  13
$$

 *****  OTHER AIRPORT OBSERVATIONS IN OUR AREA  *****

CITY           SKY/WX    TMP DP  RH WIND       PRES   REMARKS
WALHALLA       NOT AVBL
GRAFTON AIRPOR FAIR      19  18  93 N6        30.16F WCI  11
VALLEY CITY AR MOCLDY    23  19  86 NE18      30.08F WCI   9
CANDO          NOT AVBL
CAVALIER APRT    N/A     18  14  86 N3        30.16R
GWINNER        CLOUDY    27  23  86 N20G25    30.03F WCI  13
SHEYENNE NWR     N/A     24  17  73 NE18      29.95S WCI  10
ROLLA          FAIR      14  10  85 NW10      30.11S WCI   1
 ***** THE ABOVE OBSERVATIONS ARE NON NWS ARE NOT QUALITY
       CONTROLLED AND MAY MIS-REPORT RAIN FOR SNOW...
$$

  *****  WEATHER ACROSS NORTHERN MINNESOTA  *****

CITY           SKY/WX    TMP DP  RH WIND       PRES   REMARKS
FLAG ISLAND    FAIR      16   7  67 NW15      30.09S WCI   1
WARROAD        FAIR      14   7  73 NW8       30.10F WCI   3
ROSEAU         FAIR      16   9  73 NW10      30.11S WCI   3
HALLOCK        FAIR      19  12  73 N7        30.14F WCI  10
THF RVR FALLS  FAIR      18  11  74 N14       30.11S WCI   4
BAUDETTE       FAIR      17   6  62 NW13      30.06S WCI   4
WASKISH        FAIR      18  10  73 N5        30.07S WCI  11
CROOKSTON      FAIR      21  16  79 N12       30.12F WCI   9
STEPHEN NDAWN    N/A     19  16  86 N5          N/A  WCI  13
GREENBUSH NDAW   N/A     10   7  85 N2          N/A
$$
  *****  WEATHER ACROSS CENTRAL AND WEST MINNESOTA  *****

CITY           SKY/WX    TMP DP  RH WIND       PRES   REMARKS
FOSSTON        FAIR      18  12  79 N12       30.07F WCI   5
BEMIDJI        CLOUDY    21  14  73 N10G16    30.03F WCI  10
PARK RAPIDS    FAIR      23  14  68 N9        30.00F WCI  13
ELBOW LAKE     FAIR      25  20  82 NE13      29.98F WCI  14
WADENA         FAIR      23  18  80 N14       29.97F WCI  11
DETROIT LAKES  CLOUDY    25  19  80 N10G17    30.02F WCI  15
MOORHEAD       CLOUDY    25  18  74 N24       30.06F WCI   9
FERGUS FALLS   FAIR      25  19  80 N13G22    30.03F WCI  13
MORRIS MN      FAIR      28  23  80 N20G25    29.94F WCI  15
STAPLES        FAIR      25  18  74 N13       29.97F WCI  13
$$
  *****  WEATHER ELSEWHERE ACROSS MINNESOTA  *****

CITY           SKY/WX    TMP DP  RH WIND       PRES   REMARKS
DULUTH         FAIR      25  20  81 N13       29.96R WCI  14
INTRNTL FALLS  FAIR      19   7  59 NW9       30.04R WCI   8
ELY            FAIR      21  10  63 NW8       29.98S WCI  12
CLOQUET        FAIR      25  19  80 NW6       29.98S WCI  18
WHEATON        CLOUDY    27  19  74 N17G25    30.01S WCI  14
BRAINERD       FAIR      25  18  74 N9        29.99F WCI  15
HIBBING        FAIR      21  13  71 N10       29.99R WCI  10
ALEXANDRIA     FAIR      27  21  78 N15       29.94F WCI  15
SAINT CLOUD    CLOUDY    28  22  78 NE10      29.94F WCI  19
MINNEAPOLIS    CLOUDY    30  22  72 N16G23    29.89F WCI  19
$$

  *****  WEATHER ACROSS SOUTH DAKOTA  *****

CITY           SKY/WX    TMP DP  RH WIND       PRES   REMARKS
SIOUX FALLS    LGT SNOW  28  27  96 NE22G29   29.84R VSB 3/4 WCI  14
BROOKINGS      CLOUDY    27  22  81 NE20G31   29.85  WCI  13
WATERTOWN      MOCLDY    25  20  81 NE20G38   29.89R WCI  11
HURON          CLOUDY    28  22  78 NE20      29.92R WCI  15
SISSETON         N/A     26  21  81 N25G32    29.99F WCI  11
ABERDEEN       CLOUDY    27  20  75 NE22G35   29.99F WCI  13
MITCHELL       CLOUDY    30  24  78 N20G25    29.90R WCI  17
PIERRE         MOCLDY    28  20  71 NE20G26   29.95R WCI  15
MOBRIDGE       CLOUDY    31  23  72 N14G25    29.99R WCI  21
RAPID CITY     FLURRIES  27  22  81 NE15      29.95R WCI  15
$$

  *****  SOME WEATHER IN NEARBY STATES *****

CITY           SKY/WX    TMP DP  RH WIND       PRES   REMARKS
GLASGOW MT     CLOUDY    26  20  77 E8        30.11R WCI  18
GREAT FALLS MT FLURRIES  25  21  85 N8        29.98S WCI  16
CHEYENNE WY    LGT SNOW  15  11  83 N14G23    29.77R FOG     WCI   0
SCOTTSBLUFF NE LGT SNOW  23  20  88 NW8       29.87R VSB 1   WCI  14
OMAHA NE       LGT RAIN  37  33  85 N17G24    29.60F
DES MOINES IA  DRIZZLE   43  40  89 NE20      29.59F FOG
DAVENPORT IA   LGT RAIN  40  38  93 E18       29.67R
CHICAGO IL     RAIN      39  35  86 NE14      29.75F
EAU CLAIRE WI  CLOUDY    35  25  66 N10       29.89S
LA CROSSE WI   CLOUDY    43  28  55 N13G21    29.82F
$$

  *****  SOME NATIONAL WEATHER *****

CITY           SKY/WX    TMP DP  RH WIND       PRES   REMARKS
LA GUARDIA NY  MOCLDY    57  48  72 VRB5      29.88R
RALEIGH NC     FAIR      59  49  69 CALM      29.92R
ATLANTA GA     FAIR      68  51  54 SE7       29.86R
NEW ORLEANS LA FAIR      67  59  75 S8        29.80R
OKLAHOMA CITY  FAIR      69  43  38 S8        29.40R
ALBUQUERQUE NM FAIR      46   7  20 NW14      29.74R
SALT LAKE CITY FLURRIES  30  23  75 SW8       29.88R WCI  22
LOS ANGELES CA FAIR      55  32  41 W15       30.05S
BOISE ID       CLOUDY    32  24  72 NW17G31   29.95S WCI  21
SEATTLE WA     FAIR      39  31  72 S5        30.20F
$$

*** WEATHER ACROSS MANITOBA...SASKATCHEWAN AND ONTARIO ***
                ***ONTARIO***

CITY           SKY/WX    TMP DP  RH WIND       PRES   REMARKS
GERALDTON      PTCLDY    10   0  61 NW8       29.99R WCI  -1
THUNDER BAY    CLEAR     27  12  54 N8        29.99R WCI  18
SIOUX LOOKOUT  CLEAR     12   1  62 N5        30.04R WCI   4
TORONTO        PTCLDY    41  36  81 NW9       29.87R
BIG TROUT LK   FLURRIES   1  -2  85 N9        30.10R WCI -14
PICKLE LAKE    FLURRIES   3  -4  72 N5        30.05R WCI  -6
DRYDEN         CLEAR     12   3  67 N6        30.04R WCI   3
KENORA         CLEAR     14   3  62 N7        30.06R WCI   4
$$
                *** MANITOBA***

CITY           SKY/WX    TMP DP  RH WIND       PRES   REMARKS
BRANDON        CLOUDY    23  18  80 W7        30.12R WCI  15
DAUPHIN        CLOUDY    19  12  73 NE8       30.15R WCI   9
ISLAND LAKE    CRYSTALS   0  -8  71 NE6       30.19R WCI -12
PILOT MOUND      N/A     14  10  85 NW7         N/A  WCI   4
THE PAS        CLEAR      7  -4  61 E6        30.20R WCI  -3
THOMPSON       MOCLDY    -6  -9  84 N5        30.24S WCI -17
WINNIPEG       CLEAR     16  10  79 NE6       30.16R WCI   7
LYNN LAKE      CLEAR     -6 -11  77 CALM      30.20R
CHURCHILL      MOCLDY   -13 -17  84 NW9       30.37S WCI -31
GILLAM         CLEAR     -8 -13  77 NE3       30.30R
$$
                ***SASKATCHEWAN***

CITY           SKY/WX    TMP DP  RH WIND       PRES   REMARKS
ESTEVAN        MOCLDY    23  18  80 SW6       30.12S WCI  16
KINDERSLEY     CLOUDY    27  21  80 S5        30.07R WCI  21
LLOYDMINSTER   PTCLDY    18  12  79 S3        30.05S
PRINCE ALBERT  MOCLDY    14   7  73 E3        30.12R
REGINA         CLOUDY    27  18  69 W3        30.12R
YORKTON        CLEAR     16  10  79 W8        30.12R WCI   5
N. BATTLEFORD  PTCLDY    16  12  86 SE2       30.12R
LA RONGE       CLOUDY    10   1  67 S3        30.14S
SASKATOON      MOCLDY    21  14  73 NE5       30.12S WCI  15
SWIFT CURRENT  CLOUDY    23  18  80 S6        30.08R WCI  16
$$
NOTE: THESE ARE AUTOMATED STATIONS WITH LIMITED QUALITY CONTROL
      "FAIR" INDICATES FEW OR NO CLOUDS BELOW 12,000 FEET WITH NO
      SIGNIFICANT WEATHER AND/OR OBSTRUCTIONS TO VISIBILITY.
      SKY/WX - SKY CONDITION AND SIGNIFICANT WEATHER.
      TMP - AIR TEMPERATURE.    DP   - DEWPOINT TEMPERATURE.
      RH  - RELATIVE HUMIDITY.  PRES - PRESSURE.
      HX  - HEAT INDEX.         WCI  - WIND CHILL INDEX.
$



USA.gov is the U.S. government's official web portal to all federal, state and local government web resources and services.